DW0156 Weather Reports


Display with metric or nautical units.
time (UTC)temp
F
wind
direction
speed
MPH
gust
MPH
rain 1hr
in
rain 24hr
in
rain mn
in
humidity
%
barometer
mb
20260509122334 56 263 1.0 8.0 0.00 0.00 0.00 86 1029.0
20260509121833 56 263 1.0 7.0 0.00 0.00 0.00 86 1029.0
20260509120712 56 263 0.0 1.0 0.00 0.00 0.00 85 1029.0
20260509120201 56 263 0.0 1.0 0.00 0.00 0.00 85 1029.0
20260509115653 56 263 0.0 1.0 0.00 0.00 0.00 85 1028.8
20260509114532 56 263 0.0 0.0 0.00 0.00 0.00 85 1028.8
20260509114040 56 263 0.0 0.0 0.00 0.00 0.00 85 1028.8
20260509113548 56 263 0.0 2.0 0.00 0.00 0.00 84 1028.8
20260509113055 56 263 0.0 0.0 0.00 0.00 0.00 84 1028.8
20260509112555 56 263 0.0 3.0 0.00 0.00 0.00 84 1028.7
20260509111435 56 263 0.0 0.0 0.00 0.00 0.00 84 1028.7
20260509110921 56 263 0.0 0.0 0.00 0.00 0.00 83 1028.8
20260509110425 56 263 0.0 0.0 0.00 0.00 0.00 83 1028.8
20260509105915 57 263 0.0 0.0 0.00 0.00 0.00 83 1028.8
20260509105424 57 263 0.0 0.0 0.00 0.00 0.00 83 1028.8
20260509104258 57 263 0.0 1.0 0.00 0.00 0.00 82 1028.8
20260509103808 57 263 0.0 0.0 0.00 0.00 0.00 82 1028.8
20260509103249 57 263 0.0 0.0 0.00 0.00 0.00 81 1028.8
20260509102747 58 263 0.0 0.0 0.00 0.00 0.00 81 1028.9
20260509102231 58 263 0.0 0.0 0.00 0.00 0.00 81 1028.9
20260509101727 58 263 0.0 0.0 0.00 0.00 0.00 81 1028.9
20260509100623 58 263 0.0 0.0 0.00 0.00 0.00 81 1028.9
20260509100107 59 263 0.0 0.0 0.00 0.00 0.00 81 1028.9
20260509095602 59 263 0.0 0.0 0.00 0.00 0.00 81 1028.8
20260509095048 59 263 0.0 0.0 0.00 0.00 0.00 81 1028.8
20260509094531 59 263 0.0 0.0 0.00 0.00 0.00 81 1028.8
20260509094022 59 263 0.0 2.0 0.00 0.00 0.00 81 1028.6
20260509092843 59 263 0.0 3.0 0.00 0.00 0.00 80 1028.6
20260509092344 60 263 0.0 3.0 0.00 0.00 0.00 80 1028.6
20260509091233 60 263 0.0 4.0 0.00 0.00 0.00 80 1028.6
20260509090724 60 263 0.0 4.0 0.00 0.00 0.00 80 1028.6
20260509090211 60 263 0.0 4.0 0.00 0.00 0.00 80 1028.6
20260509085719 60 263 1.0 5.0 0.00 0.00 0.00 79 1028.5
20260509085220 60 263 0.0 5.0 0.00 0.00 0.00 79 1028.5
20260509084706 60 263 0.0 1.0 0.00 0.00 0.00 79 1028.5
20260509084153 60 263 0.0 0.0 0.00 0.00 0.00 79 1028.5
20260509083645 60 263 0.0 3.0 0.00 0.00 0.00 79 1028.5
20260509083153 61 263 0.0 0.0 0.00 0.00 0.00 79 1028.5
20260509082018 61 263 0.0 4.0 0.00 0.00 0.00 79 1028.4
20260509081517 61 263 0.0 0.0 0.00 0.00 0.00 79 1028.4
20260509075140 61 263 1.0 0.0 0.00 0.00 0.00 79 1028.1
20260509074038 61 263 1.0 6.0 0.00 0.00 0.00 79 1028.1
20260509073536 61 263 1.0 5.0 0.00 0.00 0.00 80 1028.1
20260509073044 62 263 0.0 5.0 0.00 0.00 0.00 81 1028.1
20260509072544 62 263 0.0 2.0 0.00 0.00 0.00 81 1028.1
20260509072027 62 263 0.0 3.0 0.00 0.00 0.00 82 1028.1
20260509071532 62 263 0.0 3.0 0.00 0.00 0.00 82 1028.1
20260509071026 62 263 0.0 3.0 0.00 0.00 0.00 83 1028.0
20260509070519 62 263 0.0 1.0 0.00 0.00 0.00 83 1028.0
20260509070000 62 263 0.0 3.0 0.00 0.00 0.00 83 1028.0
20260509064850 62 263 0.0 6.0 0.00 0.00 0.00 82 1028.0
20260509064333 62 263 1.0 6.0 0.00 0.00 0.00 82 1028.0
20260509063226 62 263 1.0 6.0 0.00 0.00 0.00 81 1028.0
20260509062735 62 263 1.0 3.0 0.00 0.00 0.00 81 1028.0
20260509061601 62 263 2.0 6.0 0.00 0.00 0.00 81 1028.0
20260509061043 62 263 2.0 9.0 0.00 0.00 0.00 82 1027.9
20260509060553 62 263 3.0 9.0 0.00 0.00 0.00 82 1027.9
20260509060058 62 263 3.0 9.0 0.00 0.00 0.00 81 1027.9
20260509054311 63 263 2.0 9.0 0.00 0.00 0.00 80 1028.0
20260509053754 63 263 3.0 9.0 0.00 0.00 0.00 79 1028.0
20260509052629 63 263 1.0 6.0 0.00 0.00 0.00 79 1028.0
20260509052121 63 263 2.0 6.0 0.00 0.00 0.00 79 1028.0
20260509051613 63 263 2.0 6.0 0.00 0.00 0.00 79 1028.0
20260509051055 63 263 2.0 5.0 0.00 0.00 0.00 79 1028.0
20260509045245 63 263 2.0 7.0 0.00 0.00 0.00 79 1028.0
20260509044734 63 263 3.0 8.0 0.00 0.00 0.00 79 1028.0
20260509044220 63 263 3.0 8.0 0.00 0.00 0.00 79 1028.0
20260509043729 63 263 3.0 8.0 0.00 0.00 0.00 80 1028.0
20260509043212 63 263 2.0 8.0 0.00 0.00 0.00 81 1028.0
20260509042712 63 263 2.0 7.0 0.00 0.00 0.00 81 1028.2
20260509042217 62 263 3.0 10.0 0.00 0.00 0.00 81 1028.2
20260509041713 62 263 3.0 10.0 0.00 0.00 0.00 82 1028.2
20260509041217 62 263 3.0 11.0 0.00 0.00 0.00 82 1028.2
20260509040717 62 263 3.0 11.0 0.00 0.00 0.00 83 1028.2
20260509040210 62 263 4.0 11.0 0.00 0.00 0.00 82 1028.2
20260509035654 62 263 4.0 11.0 0.00 0.00 0.00 82 1028.4
20260509035149 62 263 4.0 9.0 0.00 0.00 0.00 82 1028.4
20260509034657 62 263 4.0 9.0 0.00 0.00 0.00 82 1028.4
20260509033556 62 263 4.0 10.0 0.00 0.00 0.00 82 1028.6
20260509033046 62 263 4.0 10.0 0.00 0.00 0.00 82 1028.6
20260509032541 62 263 4.0 10.0 0.00 0.00 0.00 82 1028.8
20260509032041 62 263 4.0 10.0 0.00 0.00 0.00 81 1028.8
20260509031530 62 263 3.0 9.0 0.00 0.00 0.00 81 1028.8
20260509030417 62 263 3.0 6.0 0.00 0.00 0.00 81 1029.1
20260509025918 62 263 3.0 6.0 0.00 0.00 0.00 81 1029.1
20260509025418 62 263 3.0 9.0 0.00 0.00 0.00 80 1029.2
20260509024923 63 263 3.0 9.0 0.00 0.00 0.00 79 1029.2
20260509024423 63 263 3.0 9.0 0.00 0.00 0.00 78 1029.2
20260509023906 63 263 2.0 9.0 0.00 0.00 0.00 77 1029.5
20260509023410 63 263 1.0 5.0 0.00 0.00 0.00 78 1029.5
20260509022310 62 263 2.0 5.0 0.00 0.00 0.00 78 1029.7
20260509021820 62 263 2.0 5.0 0.00 0.00 0.00 78 1029.7
20260509021317 62 263 2.0 5.0 0.00 0.00 0.00 78 1030.0
20260509020146 62 263 2.0 5.0 0.00 0.00 0.00 78 1030.0
20260509015631 63 263 2.0 6.0 0.00 0.00 0.00 78 1030.1
20260509015110 63 263 2.0 6.0 0.00 0.00 0.00 78 1030.1
20260509014557 63 263 2.0 6.0 0.00 0.00 0.00 78 1030.1
20260509014041 63 263 2.0 6.0 0.00 0.00 0.00 78 1030.1
20260509013526 63 263 1.0 5.0 0.00 0.00 0.00 80 1030.1
20260509013027 63 263 1.0 5.0 0.00 0.00 0.00 80 1030.1
20260509012527 62 263 1.0 5.0 0.00 0.00 0.00 80 1030.1
20260509012032 62 263 2.0 5.0 0.00 0.00 0.00 81 1030.1
20260509011534 62 263 1.0 4.0 0.00 0.00 0.00 82 1030.1
20260509011015 61 263 1.0 4.0 0.00 0.01 0.00 83 1030.2
20260509010511 61 263 1.0 4.0 0.00 0.01 0.00 84 1030.2
20260509010012 61 263 1.0 5.0 0.00 0.01 0.00 85 1030.2
20260509004829 60 263 2.0 5.0 0.00 0.01 0.00 87 1030.2
20260509004325 60 263 2.0 5.0 0.00 0.01 0.00 88 1030.2
20260509003807 60 263 2.0 4.0 0.00 0.01 0.00 88 1030.2
20260509003311 60 263 1.0 4.0 0.00 0.01 0.00 88 1030.2
20260509002815 60 263 1.0 4.0 0.00 0.01 0.00 89 1030.4
20260509002318 60 263 0.0 3.0 0.00 0.01 0.00 89 1030.4
20260509001819 60 263 0.0 3.0 0.00 0.01 0.00 89 1030.4
20260509001305 60 263 0.0 2.0 0.00 0.01 0.00 90 1030.5
20260509000753 59 263 0.0 3.0 0.00 0.01 0.00 90 1030.5
20260508235643 60 263 0.0 0.0 0.00 0.01 0.00 91 1030.5
20260508234516 59 263 0.0 0.0 0.00 0.01 0.00 92 1030.5
20260508234015 58 263 0.0 0.0 0.00 0.01 0.00 93 1030.5
20260508233518 57 263 0.0 0.0 0.00 0.01 0.00 93 1030.5
20260508233003 57 263 0.0 0.0 0.00 0.01 0.00 93 1030.5
20260508232452 56 263 0.0 0.0 0.00 0.01 0.00 92 1030.4
20260508231340 56 263 0.0 0.0 0.00 0.01 0.00 93 1030.2
20260508230828 55 263 0.0 0.0 0.00 0.01 0.00 93 1030.2
20260508224440 53 263 0.0 0.0 0.00 0.01 0.00 92 1030.2
20260508223259 52 263 0.0 0.0 0.00 0.01 0.00 92 1030.1
20260508222750 52 263 0.0 0.0 0.00 0.01 0.00 92 1030.1
20260508222234 52 263 0.0 0.0 0.00 0.01 0.00 92 1030.1
20260508221720 52 263 0.0 0.0 0.00 0.01 0.00 92 1030.1
20260508221226 52 263 0.0 0.0 0.00 0.01 0.00 92 1030.0
20260508220114 51 263 0.0 0.0 0.00 0.00 0.00 91 1030.0
20260508215621 51 263 0.0 0.0 0.00 0.00 0.00 91 1029.9
20260508215102 51 263 0.0 0.0 0.00 0.00 0.00 91 1029.9
20260508213941 51 263 0.0 0.0 0.00 0.00 0.00 91 1029.6
20260508213429 51 263 0.0 0.0 0.00 0.00 0.00 91 1029.6
20260508212923 52 263 0.0 0.0 0.00 0.00 0.00 91 1029.6
20260508212410 52 263 0.0 0.0 0.00 0.00 0.00 91 1029.6
20260508211854 52 263 0.0 0.0 0.00 0.00 0.00 91 1029.6
20260508211349 52 263 0.0 0.0 0.00 0.00 0.00 91 1029.6
20260508210839 52 263 0.0 0.0 0.00 0.00 0.00 91 1029.6
20260508210322 52 263 0.0 0.0 0.00 0.00 0.00 91 1029.6
20260508205158 52 263 0.0 0.0 0.00 0.00 0.00 91 1029.5
20260508204643 53 263 0.0 0.0 0.00 0.00 0.00 90 1029.5
20260508204139 53 263 0.0 0.0 0.00 0.00 0.00 91 1029.4
20260508203633 53 263 0.0 0.0 0.00 0.00 0.00 91 1029.4
20260508203114 53 263 0.0 0.0 0.00 0.00 0.00 91 1029.4
20260508201938 54 263 0.0 0.0 0.00 0.00 0.00 90 1029.2
20260508201429 54 263 0.0 0.0 0.00 0.00 0.00 91 1029.2
20260508200914 54 263 0.0 0.0 0.00 0.00 0.00 91 1029.1
20260508200359 54 263 0.0 0.0 0.00 0.00 0.00 91 1029.1
20260508195908 54 263 0.0 0.0 0.00 0.00 0.00 91 1029.1
20260508195412 54 263 0.0 0.0 0.00 0.00 0.00 91 1029.0
20260508194900 55 263 0.0 0.0 0.00 0.00 0.00 91 1029.0
20260508194405 55 263 0.0 0.0 0.00 0.00 0.00 91 1029.0
20260508193845 54 263 0.0 4.0 0.00 0.00 0.00 91 1029.0
20260508193340 54 263 0.0 4.0 0.00 0.00 0.00 91 1029.0
20260508192834 54 263 0.0 0.0 0.00 0.00 0.00 91 1028.9
20260508192328 54 263 0.0 0.0 0.00 0.00 0.00 91 1028.9
20260508191813 54 263 0.0 0.0 0.00 0.00 0.00 91 1028.9
20260508191255 54 263 0.0 0.0 0.00 0.00 0.00 91 1028.9
20260508190753 54 263 0.0 0.0 0.00 0.00 0.00 91 1028.9
20260508185626 54 263 0.0 0.0 0.00 0.00 0.00 91 1028.8
20260508185130 54 263 0.0 0.0 0.00 0.00 0.00 91 1028.8
20260508184622 54 263 0.0 0.0 0.00 0.00 0.00 91 1028.8
20260508184131 54 263 0.0 0.0 0.00 0.00 0.00 91 1028.9
20260508183626 54 263 0.0 0.0 0.00 0.00 0.00 91 1028.9
20260508183129 54 263 0.0 0.0 0.00 0.00 0.00 91 1028.9
20260508182006 54 263 0.0 0.0 0.00 0.00 0.00 90 1029.0
20260508181506 54 263 0.0 0.0 0.00 0.00 0.00 90 1029.0
20260508181003 54 263 0.0 0.0 0.00 0.00 0.00 90 1029.0
20260508180447 54 263 0.0 0.0 0.00 0.00 0.00 90 1029.0
20260508175948 54 263 0.0 0.0 0.00 0.00 0.00 90 1029.0
20260508175443 54 263 0.0 0.0 0.00 0.00 0.00 90 1029.1
20260508174947 54 263 0.0 0.0 0.00 0.00 0.00 90 1029.1
20260508173805 54 263 0.0 0.0 0.00 0.00 0.00 90 1029.3
20260508172635 54 263 0.0 0.0 0.00 0.00 0.00 90 1029.2
20260508172145 54 263 0.0 0.0 0.00 0.00 0.00 90 1029.2
20260508171649 54 263 0.0 0.0 0.00 0.00 0.00 90 1029.2
20260508170519 54 263 0.0 0.0 0.00 0.00 0.00 90 1029.1
20260508165347 54 263 0.0 0.0 0.00 0.00 0.00 90 1029.1
20260508164838 54 263 1.0 3.0 0.00 0.00 0.00 90 1029.1
20260508164342 54 263 1.0 3.0 0.00 0.00 0.00 90 1029.0
20260508163826 54 263 1.0 3.0 0.00 0.00 0.00 90 1029.0
20260508163328 53 263 1.0 3.0 0.00 0.00 0.00 90 1029.0
20260508162142 53 263 1.0 2.0 0.00 0.00 0.00 89 1029.1
20260508160353 53 263 0.0 1.0 0.00 0.00 0.00 89 1029.2
20260508155227 53 263 0.0 2.0 0.00 0.00 0.00 89 1029.2
20260508154720 53 263 0.0 2.0 0.00 0.00 0.00 89 1029.2
20260508154230 53 263 0.0 0.0 0.00 0.00 0.00 89 1029.3
20260508153714 53 263 0.0 0.0 0.00 0.00 0.00 89 1029.3
20260508153202 53 263 0.0 0.0 0.00 0.00 0.00 89 1029.3
20260508152653 53 263 0.0 0.0 0.00 0.00 0.00 88 1029.5
20260508152153 53 263 0.0 0.0 0.00 0.00 0.00 88 1029.5
20260508151638 53 263 0.0 0.0 0.00 0.00 0.00 88 1029.5
20260508151146 53 263 0.0 0.0 0.00 0.00 0.00 88 1029.5
20260508150648 53 263 0.0 0.0 0.00 0.00 0.00 88 1029.5
20260508145530 54 263 0.0 0.0 0.00 0.00 0.00 88 1029.5
20260508145031 54 263 0.0 0.0 0.00 0.00 0.00 88 1029.5
20260508144531 54 263 0.0 0.0 0.00 0.00 0.00 88 1029.5
20260508144027 54 263 0.0 0.0 0.00 0.00 0.00 87 1029.6
20260508143526 54 263 0.0 0.0 0.00 0.00 0.00 87 1029.6
20260508142401 54 263 0.0 0.0 0.00 0.00 0.00 87 1029.6
20260508141854 54 263 0.0 0.0 0.00 0.00 0.00 87 1029.6
20260508141400 54 263 0.0 0.0 0.00 0.00 0.00 87 1029.6
20260508135606 54 263 0.0 0.0 0.00 0.00 0.00 87 1029.7
20260508135114 54 263 0.0 2.0 0.00 0.00 0.00 87 1029.7
20260508134554 54 263 0.0 2.0 0.00 0.00 0.00 87 1029.7
20260508134100 54 263 0.0 2.0 0.00 0.00 0.00 86 1030.0
20260508133549 55 263 0.0 0.0 0.00 0.00 0.00 86 1030.0
20260508133036 55 263 0.0 0.0 0.00 0.00 0.00 86 1030.0
20260508132528 55 263 0.0 0.0 0.00 0.00 0.00 86 1030.1
20260508132035 55 263 0.0 0.0 0.00 0.00 0.00 86 1030.1
20260508130908 55 263 0.0 3.0 0.00 0.00 0.00 86 1030.1
20260508130403 55 263 0.0 3.0 0.00 0.00 0.00 86 1030.1
20260508125854 55 263 0.0 2.0 0.00 0.00 0.00 85 1030.1
20260508125357 55 263 0.0 1.0 0.00 0.00 0.00 85 1030.1
20260508124224 55 263 0.0 3.0 0.00 0.00 0.00 85 1030.1
20260508123725 55 263 1.0 3.0 0.00 0.00 0.00 85 1030.1
20260508123228 56 263 1.0 3.0 0.00 0.00 0.00 85 1030.1